Tracking 18987 objects as of 25-Feb-2018
HD Live streaming from Space Station
objects crossing your sky now

COSMOS 89

Track COSMOS 89 now!
10-day predictions
COSMOS 89 is classified as:


NORAD ID: 1587
Int'l Code: 1965-073D
Perigee: 1,385.1 km
Apogee: 1,651.3 km
Inclination: 56.1 °
Period: 116.2 minutes
Semi major axis: 7889 km
RCS: 0.3518 m2 (medium)
Launch date: September 18, 1965
Source: Commonwealth of Independent States (former USSR) (CIS)
Launch site: TYURATAM MISSILE AND SPACE COMPLEX (TTMTR)
aabbcc
Your satellite tracking list
Your tracking list is empty




NASA's NSSDC Master Catalog

Two Line Element Set (TLE):
1  1587U 65073D   18053.61372977 -.00000084 +00000-0 +58791-4 0  9998
2  1587 056.0555 256.3726 0168708 256.8326 140.1399 12.38952707372623
Source of the keplerian elements: AFSPC